Hourly Data Report for October 14, 2014

All times are specified in Local Standard Time (LST). Add 1 hour to adjust for Daylight Saving Time where and when it is observed.

WINNIPEG A CS
MANITOBA

49°55'00.000" N
97°14'58.000" W
238.70 m
502S001
71849
XWG

Download Data

Hourly Data (October 2014)
Hourly Data Report for October 14, 2014
Temp Definition
°C
Dew Point Temp Definition
°C
Rel Hum Definition
%
Wind Dir Definition
10's deg

Wind Spd Definition
km/h
Visibility Definition
km
Stn Press Definition
kPa
Hmdx Definition


Wind Chill Definition


Weather Definition


TIME
00:00 4.8 1.5 79 21 4   98.48     LegendNANA
01:00 5.1 1.6 79 25 5   98.49     LegendNANA
02:00 1.9 -1.0 81 28 4   98.53     LegendNANA
03:00 -0.2 -3.0 81 26 3   98.54   -1 LegendNANA
04:00 1.3 0.5 94 25 2   98.57     LegendNANA
05:00 0.9 0.1 95 21 3   98.57     LegendNANA
06:00 -0.3 -1.5 91 21 4   98.57   -2 LegendNANA
07:00 -1.3 -2.2 93 27 2   98.64   -2 LegendNANA
08:00 2.9 0.8 87 0 1   98.70     LegendNANA
09:00 7.9 3.7 75 15 3   98.68     LegendNANA
10:00 11.0 3.7 61 14 5   98.66     LegendNANA
11:00 13.4 3.7 52 15 11   98.62     LegendNANA
12:00 15.7 4.5 47 17 11   98.61     LegendNANA
13:00 17.2 4.3 42 16 12   98.57     LegendNANA
14:00 18.7 1.9 33 18 15   98.52     LegendNANA
15:00 19.0 1.7 31 17 17   98.48     LegendNANA
16:00 18.1 2.9 36 17 14   98.44     LegendNANA
17:00 15.8 3.1 43 16 15   98.39     LegendNANA
18:00 14.4 3.1 47 17 18   98.41     LegendNANA
19:00 14.6 3.3 47 16 24   98.37     LegendNANA
20:00 13.7 2.9 48 18 25   98.36     LegendNANA
21:00 12.7 3.0 51 18 27   98.35     LegendNANA
22:00 12.2 3.0 53 18 30   98.34     LegendNANA
23:00 11.7 3.1 55 18 30   98.32     LegendNANA

Notes on Data Quality.

Legend

  • E = Estimated
  • M = Missing
  • NA = Not Available
  • ‡ = Partner data that is not subject to review by the National Climate Archives
Date modified: